Location: Hickory_CSC
(35.7330°N, 81.3330°W)
Time: 09:34:31
(UTC-04:00)

Cosmos 1356 Rocket - Visible Passes

Search period start: 26 June 2016 00:00
Search period end: 06 July 2016 00:00
Orbit: 544 x 601 km, 81.2° (Epoch: 25 June)

Date Brightness Start Highest point End Pass type
(mag) Time Alt. Az. Time Alt. Az. Time Alt. Az.
26 Jun 5.4 02:03:04 25° NNW 02:03:04 25° NNW 02:04:59 10° N visible
27 Jun 5.5 02:05:49 22° NNW 02:05:49 22° NNW 02:07:38 10° N visible
28 Jun 6.1 00:32:22 11° NE 00:32:22 11° NE 00:32:44 10° NE visible
28 Jun 5.7 02:08:33 19° NW 02:08:33 19° NW 02:10:10 10° NNW visible
29 Jun 5.9 00:35:06 15° NE 00:35:06 15° NE 00:35:59 10° NE visible
29 Jun 5.9 02:11:17 15° NW 02:11:17 15° NW 02:12:34 10° NNW visible
30 Jun 5.7 00:37:49 18° NE 00:37:49 18° NE 00:39:06 10° NNE visible
30 Jun 6.1 02:13:59 12° NW 02:13:59 12° NW 02:14:44 10° NW visible
01 Jul 5.5 00:40:30 22° NNE 00:40:30 22° NNE 00:42:06 10° NNE visible
02 Jul 5.4 00:43:11 25° NNE 00:43:11 25° NNE 00:45:00 10° NNE visible
03 Jul 5.3 00:45:51 28° N 00:45:51 28° N 00:47:50 10° N visible
04 Jul 5.3 00:48:30 28° N 00:48:30 28° N 00:50:36 10° N visible
05 Jul 5.4 00:51:08 27° NNW 00:51:08 27° NNW 00:53:18 10° N visible
05 Jul 5.9 23:17:34 11° ENE 23:17:34 11° ENE 23:17:53 10° NE visible
